Weather Roundup
Issued by NWS

Home | Current Version | Previous Version | Graphics & Text | Print | Product List | Glossary Off
Versions: 1 2 3 4 5 6 7 8 9 10 11 12 13 14 15 16 17 18 19 20 21 22 23 24 25 26 27 28 29 30 31 32 33 34 35 36 37 38 39 40 41 42 43 44 45 46 47 48 49 50

000
NZUS93 KARX 190710
HRRWXR

CURRENT HOURLY OBSERVATIONS ACROSS
MUCH OF THE UPPER MISSISSIPPI VALLEY
NATIONAL WEATHER SERVICE LA CROSSE WI
200 AM CDT SAT APR 19 2014


...SOUTHEAST MINNESOTA...


CITY           SKY/WX    TMP DP  RH WIND       PRES   REMARKS
ROCHESTER      MOCLDY    41  29  62 SE16      30.21S
ROCHESTER/MAYO FAIR      44  26  49 E14       30.21S
WINONA         MOCLDY    43  30  61 S6        30.27R
AUSTIN         MOCLDY    43  32  65 SE10      30.19R
ALBERT LEA     MOCLDY    45  32  61 SE14      30.16S
DODGE CENTER   MOCLDY    43  32  65 SE14      30.19F
PRESTON        PTCLDY    43  30  59 SE10      30.23S
OWATONNA       CLOUDY    43  30  61 SE17G25   30.16F
FARIBAULT      CLOUDY    46  27  46 SE18      30.16F
$$

...ELSEWHERE IN MINNESOTA...


CITY           SKY/WX    TMP DP  RH WIND       PRES   REMARKS
MINNEAPOLIS    MOCLDY    45  28  51 SE17      30.17F
INTNL FALLS    CLOUDY    34  25  69 SE17G24   30.19F WCI  23
DULUTH         CLOUDY    32  23  69 E18       30.24F WCI  20
RED WING       CLOUDY    46  27  46 SE15      30.21F
REDWOOD FALLS  PTCLDY    45  33  63 SE21      30.02F
MANKATO        CLOUDY    46  32  57 SE23      30.12F
WORTHINGTON    PTCLDY    48  32  53 S17G24    30.01F
FAIRMONT       CLOUDY    46  28  49 SE21G30   30.09F
$$

...SOUTHWEST WISCONSIN...


CITY           SKY/WX    TMP DP  RH WIND       PRES   REMARKS
LA CROSSE      PTCLDY    45  29  53 SE9       30.28S
PRAIRIE DU CHI PTCLDY    42  32  67 SE10G16   30.30R
BOSCOBEL       PTCLDY    41  30  65 E5        30.34R
LONE ROCK      PTCLDY    37  29  72 E13       30.35R WCI  29
PLATTEVILLE    PTCLDY    37  30  77 E16       30.32F WCI  27
FORT MC COY    PTCLDY    40  31  69 E8        30.32R WCI  35
CAMP DOUGLAS   CLEAR     37  30  76 SE15      30.34R WCI  28
VIROQUA        FAIR      40  32  72 SE16G22   30.28R WCI  32
WIS DELLS      CLEAR     35  26  69 E10       30.35S WCI  27
$$

...ELSEWHERE IN WISCONSIN...


CITY           SKY/WX    TMP DP  RH WIND       PRES   REMARKS
MILWAUKEE      PTCLDY    35  28  75 NE9       30.40S WCI  28
MADISON        CLEAR     34  25  69 E7        30.37S WCI  28
GREEN BAY      CLEAR     32  27  81 E5        30.43R WCI  27
EAU CLAIRE     MOCLDY    41  25  53 SE10      30.28R
BLACK RVR FLS  FAIR      41  29  63 E7        30.30S
MEDFORD        PTCLDY    35  27  74 E12       30.32S WCI  26
WAUSAU         MOCLDY    35  27  72 SE10G17   30.35R WCI  27
WIS RAPIDS     PTCLDY    35  25  66 SE6       30.38R WCI  30
MARSHFIELD     CLEAR     35  27  72 SE15      30.34R WCI  25
RICE LAKE      CLOUDY    39  22  50 E9        30.28F WCI  33
$$

...NORTHEAST IOWA...


CITY           SKY/WX    TMP DP  RH WIND       PRES   REMARKS
WATERLOO       MOCLDY    48  31  51 SE18      30.21S
DUBUQUE        CLEAR     39  32  76 SE10      30.31R WCI  32
DECORAH        PTCLDY    43  30  61 SE14G22   30.24R
MASON CITY     MOCLDY    42  33  70 SE10      30.18S
CHARLES CITY   PTCLDY    45  32  61 SE15      30.21S
OELWEIN        MOCLDY   N/A N/A N/A SE20      30.24S
$$

...ELSEWHERE IN IOWA...


CITY           SKY/WX    TMP DP  RH WIND       PRES   REMARKS
DES MOINES     CLOUDY    52  34  50 SE10      30.18S
IOWA CITY      PTCLDY    46  36  68 E8        30.28S
FORT DODGE     MOCLDY    52  34  50 SE10G20   30.13F
MARSHALLTOWN   CLOUDY    49  31  49 SE15      30.19F
CEDAR RAPIDS   PTCLDY    46  35  65 E16       30.25R
$$

...NORTHERN ILLINOIS...


CITY           SKY/WX    TMP DP  RH WIND       PRES   REMARKS
CHICAGO-OHARE  CLEAR     38  26  62 NE10      30.36F WCI  31
DUPAGE         CLEAR     37  27  67 NE9       30.34F WCI  30
CHICAGO-MIDWAY CLEAR     40  29  64 NE9       30.36S WCI  34
MOLINE         CLEAR     41  33  73 E12       30.32S
ROCKFORD       PTCLDY    36  26  67 E8        30.37F WCI  30
STERLING       PTCLDY    36  28  75 E7        30.35R WCI  30
PEORIA         MOCLDY    42  31  64 E10       30.32S
$$

NOTE: "FAIR" INDICATES FEW OR NO CLOUDS BELOW 12,000 FEET WITH NO
SIGNIFICANT WEATHER AND/OR OBSTRUCTIONS TO VISIBILITY. WIND
SPEEDS ARE IN MILES-PER-HOUR.



USA.gov is the U.S. government's official web portal to all federal, state and local government web resources and services.